| time (UTC) | temp F | wind direction | speed knots | gust knots | rain 1hr in | rain 24hr in | rain mn in | humidity % | barometer mb |
| 20260905085517 | 63 | 0 | 15.6 | 22.6 | 0.00 | 0.45 | 0.02 | 90 | 1013.6 |
| 20260905084517 | 61 | 0 | 16.5 | 24.3 | 0.00 | 0.45 | 0.02 | 91 | 1013.5 |
| 20260905083517 | 61 | 0 | 17.4 | 24.3 | 0.00 | 0.45 | 0.02 | 91 | 1013.5 |
| 20260905082537 | 61 | 0 | 13.0 | 19.1 | 0.00 | 0.45 | 0.02 | 91 | 1013.4 |
| 20260905081517 | 61 | 0 | 13.9 | 19.1 | 0.00 | 0.45 | 0.02 | 92 | 1013.3 |
| 20260905080517 | 60 | 0 | 13.0 | 19.1 | 0.00 | 0.45 | 0.02 | 92 | 1013.2 |
| 20260905075517 | 60 | 0 | 13.0 | 15.6 | 0.00 | 0.52 | 0.02 | 94 | 1013.1 |
| 20260905074558 | 60 | 0 | 13.0 | 17.4 | 0.00 | 0.52 | 0.02 | 93 | 1013.1 |
| 20260905073517 | 60 | 0 | 15.6 | 21.7 | 0.00 | 0.52 | 0.02 | 93 | 1013.0 |
| 20260905072517 | 60 | 0 | 13.0 | 17.4 | 0.00 | 0.52 | 0.02 | 94 | 1012.9 |
| 20260905071517 | 59 | 0 | 13.0 | 16.5 | 0.00 | 0.52 | 0.02 | 94 | 1012.8 |
| 20260905070517 | 59 | 0 | 12.2 | 19.1 | 0.00 | 0.52 | 0.02 | 94 | 1012.7 |
| 20260905065517 | 59 | 0 | 11.3 | 14.8 | 0.00 | 0.54 | 0.02 | 94 | 1012.5 |
| 20260905064517 | 59 | 0 | 13.0 | 17.4 | 0.00 | 0.54 | 0.02 | 95 | 1012.6 |
| 20260905063537 | 58 | 0 | 12.2 | 17.4 | 0.00 | 0.54 | 0.02 | 95 | 1012.4 |
| 20260905062517 | 58 | 0 | 12.2 | 16.5 | 0.00 | 0.54 | 0.02 | 95 | 1012.5 |
| 20260905061517 | 58 | 0 | 12.2 | 15.6 | 0.00 | 0.54 | 0.02 | 95 | 1012.3 |
| 20260905060517 | 58 | 0 | 11.3 | 15.6 | 0.00 | 0.54 | 0.02 | 95 | 1012.2 |
| 20260905055537 | 58 | 0 | 11.3 | 15.6 | 0.00 | 0.63 | 0.02 | 95 | 1012.1 |
| 20260905054517 | 57 | 0 | 7.8 | 13.9 | 0.00 | 0.63 | 0.02 | 96 | 1012.1 |
| 20260905053537 | 56 | 0 | 8.7 | 13.0 | 0.00 | 0.63 | 0.02 | 96 | 1012.1 |
| 20260905052517 | 56 | 0 | 10.4 | 13.9 | 0.00 | 0.63 | 0.02 | 96 | 1012.0 |
| 20260905051516 | 56 | 0 | 11.3 | 15.6 | 0.00 | 0.63 | 0.02 | 96 | 1012.0 |
| 20260905050517 | 56 | 0 | 11.3 | 13.9 | 0.00 | 0.63 | 0.02 | 96 | 1012.0 |
| 20260905045536 | 56 | 0 | 10.4 | 13.9 | 0.00 | 0.64 | 0.02 | 96 | 1012.0 |
| 20260905044517 | 55 | 0 | 7.8 | 12.2 | 0.00 | 0.64 | 0.02 | 96 | 1011.9 |
| 20260905043516 | 55 | 0 | 7.0 | 12.2 | 0.00 | 0.64 | 0.02 | 96 | 1011.9 |
| 20260905042516 | 55 | 0 | 7.0 | 11.3 | 0.00 | 0.64 | 0.02 | 96 | 1011.8 |
| 20260905041516 | 55 | 0 | 7.8 | 11.3 | 0.00 | 0.64 | 0.02 | 96 | 1011.7 |
| 20260905040517 | 55 | 0 | 9.6 | 12.2 | 0.00 | 0.64 | 0.02 | 96 | 1011.6 |
| 20260905035517 | 55 | 0 | 10.4 | 15.6 | 0.00 | 0.64 | 0.02 | 96 | 1011.5 |
| 20260905034517 | 55 | 0 | 9.6 | 14.8 | 0.00 | 0.64 | 0.02 | 97 | 1011.5 |
| 20260905033516 | 55 | 0 | 10.4 | 13.9 | 0.00 | 0.64 | 0.02 | 97 | 1011.4 |
| 20260905032517 | 55 | 0 | 10.4 | 14.8 | 0.00 | 0.64 | 0.02 | 97 | 1011.3 |
| 20260905031516 | 55 | 0 | 10.4 | 14.8 | 0.00 | 0.64 | 0.02 | 97 | 1011.3 |
| 20260905030517 | 55 | 0 | 8.7 | 12.2 | 0.00 | 0.64 | 0.02 | 97 | 1011.2 |
| 20260905025516 | 55 | 0 | 7.8 | 10.4 | 0.00 | 0.64 | 0.02 | 97 | 1011.1 |
| 20260905024517 | 55 | 0 | 10.4 | 13.9 | 0.00 | 0.64 | 0.02 | 96 | 1011.1 |
| 20260905023516 | 55 | 0 | 8.7 | 12.2 | 0.00 | 0.64 | 0.02 | 97 | 1011.1 |
| 20260905022516 | 56 | 0 | 10.4 | 12.2 | 0.00 | 0.64 | 0.02 | 96 | 1011.1 |
| 20260905021516 | 56 | 0 | 10.4 | 13.0 | 0.00 | 0.64 | 0.02 | 97 | 1010.9 |
| 20260905020518 | 56 | 0 | 10.4 | 13.0 | 0.00 | 0.64 | 0.02 | 97 | 1010.8 |
| 20260905015538 | 56 | 0 | 10.4 | 13.0 | 0.00 | 0.64 | 0.02 | 97 | 1010.7 |
| 20260905014518 | 56 | 0 | 10.4 | 14.8 | 0.00 | 0.64 | 0.02 | 97 | 1010.5 |
| 20260905013538 | 56 | 0 | 7.8 | 12.2 | 0.00 | 0.64 | 0.02 | 97 | 1010.5 |
| 20260905012518 | 56 | 0 | 7.8 | 11.3 | 0.00 | 0.64 | 0.02 | 97 | 1010.5 |
| 20260905011518 | 56 | 0 | 6.1 | 8.7 | 0.00 | 0.64 | 0.02 | 97 | 1010.4 |
| 20260905010518 | 56 | 0 | 7.8 | 10.4 | 0.00 | 0.64 | 0.02 | 97 | 1010.3 |
| 20260905005518 | 56 | 0 | 8.7 | 11.3 | 0.00 | 0.64 | 0.02 | 97 | 1010.3 |
| 20260905004518 | 56 | 0 | 7.8 | 12.2 | 0.00 | 0.64 | 0.02 | 97 | 1010.3 |
| 20260905003516 | 57 | 0 | 9.6 | 12.2 | 0.00 | 0.64 | 0.02 | 96 | 1010.2 |
| 20260905002538 | 57 | 0 | 10.4 | 13.9 | 0.00 | 0.64 | 0.02 | 97 | 1010.1 |
| 20260905001518 | 57 | 0 | 13.0 | 16.5 | 0.01 | 0.64 | 0.02 | 97 | 1009.9 |
| 20260905000518 | 57 | 0 | 10.4 | 14.8 | 0.02 | 0.64 | 0.02 | 97 | 1009.8 |
| 20260904235518 | 57 | 0 | 11.3 | 15.6 | 0.02 | 0.64 | 0.02 | 97 | 1009.6 |
| 20260904234518 | 57 | 0 | 11.3 | 15.6 | 0.02 | 0.64 | 0.02 | 96 | 1009.5 |
| 20260904233518 | 58 | 0 | 8.7 | 12.2 | 0.02 | 0.64 | 0.02 | 96 | 1009.6 |
| 20260904232518 | 58 | 0 | 7.8 | 10.4 | 0.02 | 0.64 | 0.02 | 96 | 1009.3 |
| 20260904231518 | 58 | 0 | 9.6 | 13.0 | 0.01 | 0.63 | 0.01 | 96 | 1009.4 |
| 20260904230538 | 57 | 0 | 11.3 | 14.8 | 0.00 | 0.62 | 0.00 | 96 | 1009.2 |
| 20260904225518 | 57 | 0 | 9.6 | 13.0 | 0.00 | 0.62 | 0.00 | 96 | 1009.1 |
| 20260904224538 | 57 | 0 | 12.2 | 15.6 | 0.00 | 0.62 | 0.00 | 96 | 1009.2 |
| 20260904223518 | 57 | 0 | 10.4 | 13.9 | 0.00 | 0.62 | 0.00 | 96 | 1009.1 |
| 20260904222518 | 58 | 0 | 11.3 | 15.6 | 0.00 | 0.62 | 0.00 | 96 | 1009.0 |
| 20260904221518 | 58 | 0 | 12.2 | 14.8 | 0.00 | 0.62 | 0.00 | 96 | 1008.9 |
| 20260904220518 | 57 | 0 | 11.3 | 15.6 | 0.00 | 0.62 | 0.00 | 96 | 1008.7 |
| 20260904215518 | 57 | 0 | 9.6 | 13.0 | 0.00 | 0.62 | 0.62 | 96 | 1008.6 |
| 20260904214517 | 57 | 0 | 10.4 | 13.9 | 0.00 | 0.62 | 0.62 | 96 | 1008.6 |
| 20260904213518 | 57 | 0 | 8.7 | 12.2 | 0.00 | 0.62 | 0.62 | 96 | 1008.4 |
| 20260904212518 | 57 | 0 | 9.6 | 13.0 | 0.00 | 0.62 | 0.62 | 96 | 1008.4 |
| 20260904211518 | 57 | 0 | 10.4 | 14.8 | 0.00 | 0.62 | 0.62 | 96 | 1008.4 |
| 20260904210518 | 57 | 0 | 10.4 | 13.0 | 0.00 | 0.62 | 0.62 | 96 | 1008.4 |
| 20260904205518 | 57 | 0 | 11.3 | 13.9 | 0.00 | 0.62 | 0.62 | 96 | 1008.3 |
| 20260904204517 | 58 | 0 | 11.3 | 16.5 | 0.00 | 0.62 | 0.62 | 96 | 1008.2 |
| 20260904203517 | 58 | 0 | 9.6 | 13.0 | 0.00 | 0.62 | 0.62 | 96 | 1008.2 |
| 20260904202518 | 58 | 0 | 10.4 | 13.9 | 0.00 | 0.62 | 0.62 | 97 | 1008.1 |
| 20260904201518 | 58 | 0 | 12.2 | 16.5 | 0.00 | 0.62 | 0.62 | 97 | 1007.9 |
| 20260904200518 | 58 | 0 | 12.2 | 15.6 | 0.02 | 0.62 | 0.62 | 97 | 1008.0 |
| 20260904195537 | 59 | 0 | 11.3 | 14.8 | 0.02 | 0.62 | 0.62 | 97 | 1007.9 |
| 20260904194517 | 59 | 0 | 12.2 | 16.5 | 0.02 | 0.62 | 0.62 | 96 | 1007.8 |
| 20260904193517 | 59 | 0 | 14.8 | 18.2 | 0.02 | 0.62 | 0.62 | 96 | 1007.7 |
| 20260904192517 | 59 | 0 | 13.9 | 19.1 | 0.02 | 0.62 | 0.62 | 96 | 1007.6 |
| 20260904191517 | 60 | 0 | 18.2 | 26.1 | 0.02 | 0.62 | 0.62 | 96 | 1007.4 |
| 20260904190518 | 61 | 0 | 14.8 | 19.1 | 0.01 | 0.61 | 0.61 | 96 | 1007.3 |
| 20260904185518 | 60 | 0 | 13.9 | 19.1 | 0.00 | 0.60 | 0.60 | 96 | 1007.0 |
| 20260904184517 | 60 | 0 | 13.9 | 16.5 | 0.00 | 0.60 | 0.60 | 96 | 1006.7 |
| 20260904183517 | 61 | 0 | 13.0 | 15.6 | 0.00 | 0.60 | 0.60 | 96 | 1006.5 |
| 20260904182517 | 61 | 0 | 13.0 | 19.1 | 0.00 | 0.60 | 0.60 | 97 | 1006.5 |
| 20260904181517 | 61 | 0 | 13.0 | 15.6 | 0.00 | 0.60 | 0.60 | 97 | 1006.4 |
| 20260904180517 | 61 | 0 | 13.0 | 19.1 | 0.00 | 0.60 | 0.60 | 97 | 1006.2 |
| 20260904175517 | 61 | 0 | 13.9 | 20.9 | 0.00 | 0.60 | 0.60 | 97 | 1006.0 |
| 20260904174517 | 61 | 0 | 15.6 | 21.7 | 0.00 | 0.60 | 0.60 | 97 | 1005.8 |
| 20260904173517 | 61 | 0 | 15.6 | 21.7 | 0.00 | 0.60 | 0.60 | 98 | 1005.5 |
| 20260904172538 | 62 | 0 | 19.1 | 26.9 | 0.00 | 0.60 | 0.60 | 97 | 1005.4 |
| 20260904171517 | 62 | 0 | 19.1 | 28.7 | 0.00 | 0.60 | 0.60 | 98 | 1005.4 |
| 20260904170517 | 62 | 0 | 18.2 | 23.5 | 0.00 | 0.60 | 0.60 | 98 | 1005.2 |
| 20260904165517 | 62 | 0 | 19.1 | 26.1 | 0.04 | 0.60 | 0.60 | 98 | 1005.0 |
| 20260904164517 | 63 | 0 | 20.9 | 26.1 | 0.04 | 0.60 | 0.60 | 98 | 1004.7 |
| 20260904163517 | 63 | 0 | 20.0 | 26.9 | 0.04 | 0.60 | 0.60 | 98 | 1004.5 |
| 20260904162517 | 64 | 0 | 16.5 | 22.6 | 0.04 | 0.60 | 0.60 | 98 | 1004.5 |
| 20260904161537 | 64 | 0 | 18.2 | 27.8 | 0.04 | 0.60 | 0.60 | 98 | 1004.3 |
| 20260904160558 | 64 | 0 | 14.8 | 21.7 | 0.04 | 0.60 | 0.60 | 98 | 1004.0 |
| 20260904155517 | 64 | 0 | 7.8 | 13.0 | 0.00 | 0.56 | 0.56 | 98 | 1003.9 |
| 20260904154517 | 64 | 0 | 5.2 | 8.7 | 0.00 | 0.56 | 0.56 | 98 | 1004.0 |
| 20260904153517 | 64 | 0 | 7.0 | 9.6 | 0.00 | 0.56 | 0.56 | 98 | 1004.0 |
| 20260904152517 | 64 | 0 | 7.0 | 11.3 | 0.00 | 0.56 | 0.56 | 98 | 1004.2 |
| 20260904151517 | 64 | 0 | 7.8 | 12.2 | 0.00 | 0.56 | 0.56 | 98 | 1004.4 |
| 20260904150517 | 64 | 0 | 5.2 | 9.6 | 0.00 | 0.56 | 0.56 | 98 | 1003.3 |
| 20260904145517 | 64 | 0 | 9.6 | 13.0 | 0.01 | 0.56 | 0.56 | 98 | 1004.4 |
| 20260904144537 | 64 | 0 | 13.0 | 16.5 | 0.01 | 0.56 | 0.56 | 99 | 1004.8 |
| 20260904143517 | 64 | 0 | 10.4 | 13.9 | 0.01 | 0.56 | 0.56 | 99 | 1004.4 |
| 20260904142517 | 63 | 0 | 11.3 | 15.6 | 0.01 | 0.56 | 0.56 | 98 | 1004.6 |
| 20260904141517 | 64 | 0 | 9.6 | 12.2 | 0.01 | 0.56 | 0.56 | 99 | 1004.1 |
| 20260904140517 | 64 | 0 | 10.4 | 13.9 | 0.01 | 0.56 | 0.56 | 99 | 1004.4 |
| 20260904135517 | 63 | 0 | 8.7 | 11.3 | 0.00 | 0.55 | 0.55 | 99 | 1004.3 |
| 20260904134617 | 63 | 0 | 9.6 | 14.8 | 0.00 | 0.55 | 0.55 | 98 | 1004.3 |
| 20260904133537 | 64 | 0 | 9.6 | 13.0 | 0.00 | 0.55 | 0.55 | 98 | 1004.6 |
| 20260904132517 | 64 | 0 | 10.4 | 13.9 | 0.00 | 0.55 | 0.55 | 99 | 1004.6 |
| 20260904131517 | 65 | 0 | 11.3 | 14.8 | 0.03 | 0.55 | 0.55 | 98 | 1004.4 |
| 20260904130517 | 66 | 0 | 9.6 | 13.0 | 0.17 | 0.55 | 0.55 | 99 | 1004.3 |
| 20260904125517 | 66 | 0 | 10.4 | 13.0 | 0.17 | 0.56 | 0.55 | 99 | 1004.4 |
| 20260904124517 | 64 | 0 | 9.6 | 12.2 | 0.17 | 0.56 | 0.55 | 98 | 1004.3 |
| 20260904123516 | 63 | 0 | 10.4 | 13.0 | 0.17 | 0.56 | 0.55 | 98 | 1004.1 |
| 20260904122517 | 63 | 0 | 10.4 | 13.9 | 0.17 | 0.56 | 0.55 | 98 | 1004.1 |
| 20260904121517 | 63 | 0 | 17.4 | 32.2 | 0.15 | 0.53 | 0.52 | 97 | 1004.3 |
| 20260904120517 | 66 | 0 | 16.5 | 26.9 | 0.03 | 0.39 | 0.39 | 98 | 1002.6 |
| 20260904115517 | 66 | 0 | 10.4 | 20.0 | 0.03 | 0.39 | 0.39 | 99 | 1002.8 |
| 20260904114537 | 66 | 0 | 9.6 | 17.4 | 0.03 | 0.39 | 0.39 | 98 | 1002.8 |
| 20260904113516 | 66 | 0 | 13.0 | 17.4 | 0.03 | 0.39 | 0.39 | 98 | 1003.1 |
| 20260904112516 | 66 | 0 | 13.9 | 20.0 | 0.02 | 0.39 | 0.38 | 98 | 1003.4 |
| 20260904111516 | 66 | 0 | 10.4 | 15.6 | 0.02 | 0.38 | 0.37 | 98 | 1003.5 |
| 20260904110517 | 66 | 0 | 10.4 | 13.9 | 0.02 | 0.36 | 0.35 | 98 | 1003.6 |
| 20260904105516 | 66 | 0 | 12.2 | 16.5 | 0.02 | 0.36 | 0.35 | 98 | 1003.7 |
| 20260904104516 | 66 | 0 | 10.4 | 16.5 | 0.03 | 0.36 | 0.35 | 98 | 1003.8 |
| 20260904103516 | 66 | 0 | 12.2 | 20.0 | 0.03 | 0.36 | 0.35 | 98 | 1004.0 |
| 20260904102516 | 66 | 0 | 5.2 | 8.7 | 0.03 | 0.36 | 0.35 | 99 | 1004.0 |
| 20260904101516 | 66 | 225 | 1.7 | 3.5 | 0.05 | 0.36 | 0.35 | 99 | 1004.1 |
| 20260904100517 | 65 | 225 | 3.5 | 5.2 | 0.05 | 0.35 | 0.34 | 99 | 1004.4 |
| 20260904095517 | 65 | 0 | 3.5 | 7.0 | 0.06 | 0.35 | 0.34 | 99 | 1004.8 |
| 20260904094516 | 66 | 0 | 6.1 | 8.7 | 0.06 | 0.33 | 0.32 | 99 | 1005.2 |
| 20260904093516 | 65 | 0 | 7.8 | 10.4 | 0.08 | 0.33 | 0.32 | 98 | 1005.5 |
| 20260904092517 | 65 | 0 | 11.3 | 13.9 | 0.09 | 0.33 | 0.32 | 98 | 1005.6 |
| 20260904091516 | 64 | 0 | 13.9 | 19.1 | 0.09 | 0.31 | 0.31 | 98 | 1005.6 |
| 20260904090516 | 64 | 0 | 8.7 | 12.2 | 0.09 | 0.30 | 0.29 | 98 | 1005.8 |